Погода в Старой Рузе

Россия / Московская область     55°38′59″N   36°19′59″E
темп.,
°C
ветер,
м/с
пор.,
м/с
влажн.,
%
обл.,
%
осадки,
мм/ч
давл.,
гПа
погр.,
м
6 мая, чт
чт600:00+7ю249660 0.2 100771
03:00+6ююв31196100 0.2 1006258
06:00+8ююв41394100 0.0 1004366
09:00+11ю61486100 0.2 1003801
12:00+11ю7168088 0.2 10021253
15:00+14ю91667100 0.5 10002050
18:00+7зюз5109098 2.1 1004867
21:00+7юз41091100 2.3 1006772
7 мая, пт
пт700:00+5юз4119440 0.0 1008544
03:00+3юз3119644 0.0 1009389
06:00+3юз411930 0.0 1010491
09:00+8юз49653 0.0 1011892
12:00+12юз61046100 0.0 10112347
15:00+11юз6106092 0.4 10111497
18:00+11ююз4975100 1.1 10111024
21:00+8ю2886100 1.4 1011209
8 мая, сб
сб800:00+8ю41285100 0.2 1010589
03:00+8юв51488100 2.2 1008902
06:00+7ююв51492100 3.0 1006917
09:00+7ююв51496100 8.3 1004916
12:00+8ююв41197100 1.1 1002710
15:00+9юз4893100 3.3 1001502
18:00+9юз611805 0.4 10011223
21:00+5юз61288100 0.6 10031000
9 мая, вс
вс900:00+4з61392100 0.1 10051296
03:00+4з71283100 0.2 10081083
06:00+3з51080100 0.0 10111085
09:00+7зсз610615 0.0 10141220
12:00+10зсз684419 0.0 10162005
15:00+11сз58375 0.0 10182108
18:00+10сз37475 0.0 10211935
21:00+5сз11690 0.0 102410
10 мая, пн
пн1000:00+3з11705 0.0 102610
03:00+2зюз11766 0.0 102810
06:00+4зюз11756 0.0 102928
09:00+11зюз23525 0.0 1029528
12:00+14юз224028 0.0 10291629
15:00+16зюз22395 0.0 10281603
18:00+15ююз01470 0.0 10281222
21:00+9юв11660 0.0 102810